User: anonymous   Login
Location: Deep South Regional Star Gaze
(30.9929°N, 90.9586°W)
Time: 04:32:39
(UTC-06:00)
Language:

H-2A R/B - Orbit

View from above orbital plane
View from above orbital plane
View from above satellite
View from above satellite

Ground track
Ground track

The orbit data is extracted from the following two-line orbital elements,

1 26899U 01038B   17345.32364352  .00001159  00000-0  34206-3 0  9998
2 26899  28.4594 353.5109 7120403 305.0207   7.3044  2.48299252140914
Epoch (UTC): 11 December 2017 07:46:02
Eccentricity: 0.7120403
inclination: 28.4594°
perigee height: 255 km
apogee height: 33061 km
right ascension of ascending node: 353.5109°
argument of perigee: 305.0207°
revolutions per day: 2.48299252
mean anomaly at epoch: 7.3044°
orbit number at epoch: 14091

The dashed part of the orbit path shows where the satellite is in the earth's shadow,  

DLR